owner,sensor,date,latitude,longitude,vertical_datum,wind_speed,wind_to_direction,wind_speed_of_gust,qcFlag 
WAVCIS,ioos:station:WAVCIS:CSI03:3,2016-05-01T00:00:00Z,29.4412,-92.0613,10.0,10.26,127.0,,'11111222,11111222,99999999' 
WAVCIS,ioos:station:WAVCIS:CSI03:3,2016-05-01T01:00:00Z,29.4412,-92.0613,10.0,10.95,127.0,,'11111222,11111222,99999999' 
WAVCIS,ioos:station:WAVCIS:CSI03:3,2016-05-01T02:00:00Z,29.4412,-92.0613,10.0,7.77,127.0,,'11111222,11111222,99999999' 
WAVCIS,ioos:station:WAVCIS:CSI03:3,2016-05-01T03:00:00Z,29.4412,-92.0613,10.0,11.87,138.0,,'11111222,11111222,99999999' 
WAVCIS,ioos:station:WAVCIS:CSI03:3,2016-05-01T04:00:00Z,29.4412,-92.0613,10.0,11.87,139.0,,'11111222,11111222,99999999' 
WAVCIS,ioos:station:WAVCIS:CSI03:3,2016-05-01T05:00:00Z,29.4412,-92.0613,10.0,11.28,144.0,,'11111222,11111222,99999999' 
WAVCIS,ioos:station:WAVCIS:CSI03:3,2016-05-01T06:00:00Z,29.4412,-92.0613,10.0,10.21,145.0,,'11111222,11111222,99999999' 
WAVCIS,ioos:station:WAVCIS:CSI03:3,2016-05-01T07:00:00Z,29.4412,-92.0613,10.0,9.87,146.0,,'11111222,11111222,99999999' 
WAVCIS,ioos:station:WAVCIS:CSI03:3,2016-05-01T08:00:00Z,29.4412,-92.0613,10.0,10.15,146.0,,'11111222,11111222,99999999' 
WAVCIS,ioos:station:WAVCIS:CSI03:3,2016-05-01T09:00:00Z,29.4412,-92.0613,10.0,10.01,146.0,,'11111222,11111222,99999999' 
WAVCIS,ioos:station:WAVCIS:CSI03:3,2016-05-01T10:00:00Z,29.4412,-92.0613,10.0,10.95,149.0,,'11111222,11111222,99999999' 
WAVCIS,ioos:station:WAVCIS:CSI03:3,2016-05-01T11:00:00Z,29.4412,-92.0613,10.0,11.37,154.0,,'11111222,11111222,99999999' 
WAVCIS,ioos:station:WAVCIS:CSI03:3,2016-05-01T12:00:00Z,29.4412,-92.0613,10.0,11.25,165.0,,'11111222,11111222,99999999' 
WAVCIS,ioos:station:WAVCIS:CSI03:3,2016-05-01T13:00:00Z,29.4412,-92.0613,10.0,8.36,172.0,,'11111222,11111222,99999999' 
WAVCIS,ioos:station:WAVCIS:CSI03:3,2016-05-01T14:00:00Z,29.4412,-92.0613,10.0,8.08,177.0,,'11111222,11111222,99999999' 
WAVCIS,ioos:station:WAVCIS:CSI03:3,2016-05-01T15:00:00Z,29.4412,-92.0613,10.0,4.804,171.0,,'11111222,11111222,99999999' 
WAVCIS,ioos:station:WAVCIS:CSI03:3,2016-05-01T16:00:00Z,29.4412,-92.0613,10.0,11.11,159.0,,'11111222,11111222,99999999' 
WAVCIS,ioos:station:WAVCIS:CSI03:3,2016-05-01T17:00:00Z,29.4412,-92.0613,10.0,10.74,158.0,,'11111222,11111222,99999999' 
WAVCIS,ioos:station:WAVCIS:CSI03:3,2016-05-01T18:00:00Z,29.4412,-92.0613,10.0,11.93,159.0,,'11111222,11111222,99999999' 
WAVCIS,ioos:station:WAVCIS:CSI03:3,2016-05-01T19:00:00Z,29.4412,-92.0613,10.0,10.77,175.0,,'11111222,11111222,99999999' 
WAVCIS,ioos:station:WAVCIS:CSI03:3,2016-05-01T20:00:00Z,29.4412,-92.0613,10.0,12.34,211.0,,'11111222,11111222,99999999' 
WAVCIS,ioos:station:WAVCIS:CSI03:3,2016-05-01T21:00:00Z,29.4412,-92.0613,10.0,11.63,211.0,,'11111222,11111222,99999999' 
WAVCIS,ioos:station:WAVCIS:CSI03:3,2016-05-01T22:00:00Z,29.4412,-92.0613,10.0,13.57,215.0,,'11111222,11111222,99999999' 
WAVCIS,ioos:station:WAVCIS:CSI03:3,2016-05-01T23:00:00Z,29.4412,-92.0613,10.0,13.0,215.0,,'11111222,11111222,99999999' 
WAVCIS,ioos:station:WAVCIS:CSI03:3,2016-05-02T00:00:00Z,29.4412,-92.0613,10.0,9.72,224.0,,'11111222,11111222,99999999' 
WAVCIS,ioos:station:WAVCIS:CSI03:3,2016-05-02T01:00:00Z,29.4412,-92.0613,10.0,14.3,222.0,,'11111222,11111222,99999999' 
WAVCIS,ioos:station:WAVCIS:CSI03:3,2016-05-02T02:00:00Z,29.4412,-92.0613,10.0,15.06,231.0,,'11111222,11111222,99999999' 
WAVCIS,ioos:station:WAVCIS:CSI03:3,2016-05-02T03:00:00Z,29.4412,-92.0613,10.0,12.84,234.0,,'11111222,11111222,99999999' 
WAVCIS,ioos:station:WAVCIS:CSI03:3,2016-05-02T04:00:00Z,29.4412,-92.0613,10.0,11.57,235.0,,'11111222,11111222,99999999' 
WAVCIS,ioos:station:WAVCIS:CSI03:3,2016-05-02T05:00:00Z,29.4412,-92.0613,10.0,10.17,234.0,,'11111222,11111222,99999999' 
WAVCIS,ioos:station:WAVCIS:CSI03:3,2016-05-02T06:00:00Z,29.4412,-92.0613,10.0,5.367,232.0,,'11111222,11111222,99999999' 
WAVCIS,ioos:station:WAVCIS:CSI03:3,2016-05-02T07:00:00Z,29.4412,-92.0613,10.0,5.452,211.0,,'11111222,11111222,99999999' 
WAVCIS,ioos:station:WAVCIS:CSI03:3,2016-05-02T08:00:00Z,29.4412,-92.0613,10.0,7.13,211.0,,'11111222,11111222,99999999' 
WAVCIS,ioos:station:WAVCIS:CSI03:3,2016-05-02T09:00:00Z,29.4412,-92.0613,10.0,5.296,228.0,,'11111222,11111222,99999999' 
WAVCIS,ioos:station:WAVCIS:CSI03:3,2016-05-02T10:00:00Z,29.4412,-92.0613,10.0,2.908,211.0,,'11111222,11111222,99999999' 
WAVCIS,ioos:station:WAVCIS:CSI03:3,2016-05-02T11:00:00Z,29.4412,-92.0613,10.0,5.42,190.0,,'11111222,11111222,99999999' 
WAVCIS,ioos:station:WAVCIS:CSI03:3,2016-05-02T12:00:00Z,29.4412,-92.0613,10.0,6.652,184.0,,'11111222,11111222,99999999' 
WAVCIS,ioos:station:WAVCIS:CSI03:3,2016-05-02T13:00:00Z,29.4412,-92.0613,10.0,5.331,152.0,,'11111222,11111222,99999999' 
WAVCIS,ioos:station:WAVCIS:CSI03:3,2016-05-02T14:00:00Z,29.4412,-92.0613,10.0,7.38,142.0,,'11111222,11111222,99999999' 
WAVCIS,ioos:station:WAVCIS:CSI03:3,2016-05-02T15:00:00Z,29.4412,-92.0613,10.0,3.612,142.0,,'11111222,11111222,99999999' 
WAVCIS,ioos:station:WAVCIS:CSI03:3,2016-05-02T16:00:00Z,29.4412,-92.0613,10.0,1.951,174.0,,'11111222,11111222,99999999' 
WAVCIS,ioos:station:WAVCIS:CSI03:3,2016-05-02T17:00:00Z,29.4412,-92.0613,10.0,0.989,174.0,,'11111222,11111222,99999999' 
WAVCIS,ioos:station:WAVCIS:CSI03:3,2016-05-02T18:00:00Z,29.4412,-92.0613,10.0,4.893,174.0,,'11111222,11111222,99999999' 
WAVCIS,ioos:station:WAVCIS:CSI03:3,2016-05-02T19:00:00Z,29.4412,-92.0613,10.0,8.87,217.0,,'11111222,11111222,99999999' 
WAVCIS,ioos:station:WAVCIS:CSI03:3,2016-05-02T20:00:00Z,29.4412,-92.0613,10.0,4.122,213.0,,'11111222,11111222,99999999' 
WAVCIS,ioos:station:WAVCIS:CSI03:3,2016-05-02T21:00:00Z,29.4412,-92.0613,10.0,2.694,216.0,,'11111222,11111222,99999999' 
WAVCIS,ioos:station:WAVCIS:CSI03:3,2016-05-03T09:00:00Z,29.4412,-92.0613,10.0,6.7,-9999.0,8.2,'11111222,99999999,11111222' 
WAVCIS,ioos:station:WAVCIS:CSI03:3,2016-05-04T13:00:00Z,29.4412,-92.0613,10.0,4.6,-9999.0,5.7,'11111222,99999999,11111222' 
WAVCIS,ioos:station:WAVCIS:CSI03:3,2016-05-04T14:00:00Z,29.4412,-92.0613,10.0,5.681,130.0,,'11111222,11111222,99999999' 
WAVCIS,ioos:station:WAVCIS:CSI03:3,2016-05-04T15:00:00Z,29.4412,-92.0613,10.0,5.471,114.0,,'11111222,11111222,99999999' 
WAVCIS,ioos:station:WAVCIS:CSI03:3,2016-05-04T16:00:00Z,29.4412,-92.0613,10.0,4.974,104.0,,'11111222,11111222,99999999' 
WAVCIS,ioos:station:WAVCIS:CSI03:3,2016-05-04T17:00:00Z,29.4412,-92.0613,10.0,4.79,98.0,,'11111222,11111222,99999999' 
WAVCIS,ioos:station:WAVCIS:CSI03:3,2016-05-04T18:00:00Z,29.4412,-92.0613,10.0,4.745,99.0,,'11111222,11111222,99999999' 
WAVCIS,ioos:station:WAVCIS:CSI03:3,2016-05-04T19:00:00Z,29.4412,-92.0613,10.0,4.486,94.0,,'11111222,11111222,99999999' 
WAVCIS,ioos:station:WAVCIS:CSI03:3,2016-05-04T20:00:00Z,29.4412,-92.0613,10.0,7.46,80.0,,'11111222,11111222,99999999' 
WAVCIS,ioos:station:WAVCIS:CSI03:3,2016-05-04T21:00:00Z,29.4412,-92.0613,10.0,7.13,78.0,,'11111222,11111222,99999999' 
WAVCIS,ioos:station:WAVCIS:CSI03:3,2016-05-04T22:00:00Z,29.4412,-92.0613,10.0,6.199,74.0,,'11111222,11111222,99999999' 
WAVCIS,ioos:station:WAVCIS:CSI03:3,2016-05-04T23:00:00Z,29.4412,-92.0613,10.0,7.83,65.0,,'11111222,11111222,99999999' 
WAVCIS,ioos:station:WAVCIS:CSI03:3,2016-05-05T00:00:00Z,29.4412,-92.0613,10.0,4.142,42.0,,'11111222,11111222,99999999' 
WAVCIS,ioos:station:WAVCIS:CSI03:3,2016-05-05T01:00:00Z,29.4412,-92.0613,10.0,5.792,47.0,,'11111222,11111222,99999999' 
WAVCIS,ioos:station:WAVCIS:CSI03:3,2016-05-05T02:00:00Z,29.4412,-92.0613,10.0,4.788,47.0,,'11111222,11111222,99999999' 
WAVCIS,ioos:station:WAVCIS:CSI03:3,2016-05-05T03:00:00Z,29.4412,-92.0613,10.0,6.714,27.0,,'11111222,11111222,99999999' 
WAVCIS,ioos:station:WAVCIS:CSI03:3,2016-05-05T04:00:00Z,29.4412,-92.0613,10.0,7.72,12.0,,'11111222,11111222,99999999' 
WAVCIS,ioos:station:WAVCIS:CSI03:3,2016-05-05T05:00:00Z,29.4412,-92.0613,10.0,7.08,29.0,,'11111222,11111222,99999999' 
WAVCIS,ioos:station:WAVCIS:CSI03:3,2016-05-05T06:00:00Z,29.4412,-92.0613,10.0,6.225,27.0,,'11111222,11111222,99999999' 
WAVCIS,ioos:station:WAVCIS:CSI03:3,2016-05-05T07:00:00Z,29.4412,-92.0613,10.0,6.573,50.0,,'11111222,11111222,99999999' 
WAVCIS,ioos:station:WAVCIS:CSI03:3,2016-05-05T08:00:00Z,29.4412,-92.0613,10.0,5.948,54.0,,'11111222,11111222,99999999' 
WAVCIS,ioos:station:WAVCIS:CSI03:3,2016-05-05T09:00:00Z,29.4412,-92.0613,10.0,4.679,52.0,,'11111222,11111222,99999999' 
WAVCIS,ioos:station:WAVCIS:CSI03:3,2016-05-05T10:00:00Z,29.4412,-92.0613,10.0,4.182,47.0,,'11111222,11111222,99999999' 
WAVCIS,ioos:station:WAVCIS:CSI03:3,2016-05-05T11:00:00Z,29.4412,-92.0613,10.0,7.24,48.0,,'11111222,11111222,99999999' 
WAVCIS,ioos:station:WAVCIS:CSI03:3,2016-05-05T12:00:00Z,29.4412,-92.0613,10.0,9.12,61.0,,'11111222,11111222,99999999' 
WAVCIS,ioos:station:WAVCIS:CSI03:3,2016-05-05T13:00:00Z,29.4412,-92.0613,10.0,6.701,66.0,,'11111222,11111222,99999999' 
WAVCIS,ioos:station:WAVCIS:CSI03:3,2016-05-05T14:00:00Z,29.4412,-92.0613,10.0,5.396,86.0,,'11111222,11111222,99999999' 
WAVCIS,ioos:station:WAVCIS:CSI03:3,2016-05-05T15:00:00Z,29.4412,-92.0613,10.0,4.446,95.0,,'11111222,11111222,99999999' 
WAVCIS,ioos:station:WAVCIS:CSI03:3,2016-05-05T16:00:00Z,29.4412,-92.0613,10.0,3.966,95.0,,'11111222,11111222,99999999' 
WAVCIS,ioos:station:WAVCIS:CSI03:3,2016-05-05T17:00:00Z,29.4412,-92.0613,10.0,4.23,94.0,,'11111222,11111222,99999999' 
WAVCIS,ioos:station:WAVCIS:CSI03:3,2016-05-05T18:00:00Z,29.4412,-92.0613,10.0,2.764,95.0,,'11111222,11111222,99999999' 
WAVCIS,ioos:station:WAVCIS:CSI03:3,2016-05-05T19:00:00Z,29.4412,-92.0613,10.0,3.76,95.0,,'11111222,11111222,99999999' 
WAVCIS,ioos:station:WAVCIS:CSI03:3,2016-05-05T20:00:00Z,29.4412,-92.0613,10.0,4.564,77.0,,'11111222,11111222,99999999' 
WAVCIS,ioos:station:WAVCIS:CSI03:3,2016-05-05T21:00:00Z,29.4412,-92.0613,10.0,5.468,77.0,,'11111222,11111222,99999999' 
WAVCIS,ioos:station:WAVCIS:CSI03:3,2016-05-05T22:00:00Z,29.4412,-92.0613,10.0,5.025,77.0,,'11111222,11111222,99999999' 
WAVCIS,ioos:station:WAVCIS:CSI03:3,2016-05-05T23:00:00Z,29.4412,-92.0613,10.0,4.743,78.0,,'11111222,11111222,99999999' 
WAVCIS,ioos:station:WAVCIS:CSI03:3,2016-05-06T00:00:00Z,29.4412,-92.0613,10.0,4.268,78.0,,'11111222,11111222,99999999' 
WAVCIS,ioos:station:WAVCIS:CSI03:3,2016-05-06T01:00:00Z,29.4412,-92.0613,10.0,4.202,78.0,,'11111222,11111222,99999999' 
WAVCIS,ioos:station:WAVCIS:CSI03:3,2016-05-06T02:00:00Z,29.4412,-92.0613,10.0,3.877,78.0,,'11111222,11111222,99999999' 
WAVCIS,ioos:station:WAVCIS:CSI03:3,2016-05-06T03:00:00Z,29.4412,-92.0613,10.0,4.669,80.0,,'11111222,11111222,99999999' 
WAVCIS,ioos:station:WAVCIS:CSI03:3,2016-05-06T04:00:00Z,29.4412,-92.0613,10.0,5.333,95.0,,'11111222,11111222,99999999' 
WAVCIS,ioos:station:WAVCIS:CSI03:3,2016-05-06T05:00:00Z,29.4412,-92.0613,10.0,5.28,121.0,,'11111222,11111222,99999999' 
WAVCIS,ioos:station:WAVCIS:CSI03:3,2016-05-06T06:00:00Z,29.4412,-92.0613,10.0,6.287,124.0,,'11111222,11111222,99999999' 
WAVCIS,ioos:station:WAVCIS:CSI03:3,2016-05-06T07:00:00Z,29.4412,-92.0613,10.0,5.745,128.0,,'11111222,11111222,99999999' 
WAVCIS,ioos:station:WAVCIS:CSI03:3,2016-05-06T08:00:00Z,29.4412,-92.0613,10.0,5.232,130.0,,'11111222,11111222,99999999' 
WAVCIS,ioos:station:WAVCIS:CSI03:3,2016-05-06T09:00:00Z,29.4412,-92.0613,10.0,4.392,145.0,,'11111222,11111222,99999999' 
WAVCIS,ioos:station:WAVCIS:CSI03:3,2016-05-06T10:00:00Z,29.4412,-92.0613,10.0,3.92,157.0,,'11111222,11111222,99999999' 
WAVCIS,ioos:station:WAVCIS:CSI03:3,2016-05-06T11:00:00Z,29.4412,-92.0613,10.0,4.161,157.0,,'11111222,11111222,99999999' 
WAVCIS,ioos:station:WAVCIS:CSI03:3,2016-05-06T12:00:00Z,29.4412,-92.0613,10.0,5.448,157.0,,'11111222,11111222,99999999' 
WAVCIS,ioos:station:WAVCIS:CSI03:3,2016-05-06T13:00:00Z,29.4412,-92.0613,10.0,4.489,166.0,,'11111222,11111222,99999999' 
WAVCIS,ioos:station:WAVCIS:CSI03:3,2016-05-06T14:00:00Z,29.4412,-92.0613,10.0,4.59,177.0,,'11111222,11111222,99999999' 
WAVCIS,ioos:station:WAVCIS:CSI03:3,2016-05-06T15:00:00Z,29.4412,-92.0613,10.0,4.258,177.0,,'11111222,11111222,99999999' 
WAVCIS,ioos:station:WAVCIS:CSI03:3,2016-05-06T16:00:00Z,29.4412,-92.0613,10.0,3.399,176.0,,'11111222,11111222,99999999' 
WAVCIS,ioos:station:WAVCIS:CSI03:3,2016-05-06T17:00:00Z,29.4412,-92.0613,10.0,2.253,177.0,,'11111222,11111222,99999999' 
WAVCIS,ioos:station:WAVCIS:CSI03:3,2016-05-06T18:00:00Z,29.4412,-92.0613,10.0,1.403,182.0,,'11111222,11111222,99999999' 
WAVCIS,ioos:station:WAVCIS:CSI03:3,2016-05-06T19:00:00Z,29.4412,-92.0613,10.0,0.142,184.0,,'11111222,11111222,99999999' 
WAVCIS,ioos:station:WAVCIS:CSI03:3,2016-05-06T20:00:00Z,29.4412,-92.0613,10.0,0.184,184.0,,'11111222,11111222,99999999' 
WAVCIS,ioos:station:WAVCIS:CSI03:3,2016-05-06T21:00:00Z,29.4412,-92.0613,10.0,0.301,252.0,,'11111222,11111222,99999999' 
WAVCIS,ioos:station:WAVCIS:CSI03:3,2016-05-06T22:00:00Z,29.4412,-92.0613,10.0,3.273,310.0,,'11111222,11111222,99999999' 
WAVCIS,ioos:station:WAVCIS:CSI03:3,2016-05-06T23:00:00Z,29.4412,-92.0613,10.0,4.111,353.0,,'11111222,11111222,99999999' 
WAVCIS,ioos:station:WAVCIS:CSI03:3,2016-05-07T00:00:00Z,29.4412,-92.0613,10.0,4.954,348.0,,'11111222,11111222,99999999' 
WAVCIS,ioos:station:WAVCIS:CSI03:3,2016-05-07T01:00:00Z,29.4412,-92.0613,10.0,4.699,359.0,,'11111222,11111222,99999999' 
WAVCIS,ioos:station:WAVCIS:CSI03:3,2016-05-07T02:00:00Z,29.4412,-92.0613,10.0,4.855,3.0,,'11111222,11111222,99999999' 
WAVCIS,ioos:station:WAVCIS:CSI03:3,2016-05-07T03:00:00Z,29.4412,-92.0613,10.0,5.041,6.0,,'11111222,11111222,99999999' 
WAVCIS,ioos:station:WAVCIS:CSI03:3,2016-05-07T04:00:00Z,29.4412,-92.0613,10.0,3.794,11.0,,'11111222,11111222,99999999' 
WAVCIS,ioos:station:WAVCIS:CSI03:3,2016-05-07T05:00:00Z,29.4412,-92.0613,10.0,3.586,54.0,,'11111222,11111222,99999999' 
WAVCIS,ioos:station:WAVCIS:CSI03:3,2016-05-07T06:00:00Z,29.4412,-92.0613,10.0,3.752,71.0,,'11111222,11111222,99999999' 
WAVCIS,ioos:station:WAVCIS:CSI03:3,2016-05-07T07:00:00Z,29.4412,-92.0613,10.0,3.516,98.0,,'11111222,11111222,99999999' 
WAVCIS,ioos:station:WAVCIS:CSI03:3,2016-05-07T08:00:00Z,29.4412,-92.0613,10.0,4.204,134.0,,'11111222,11111222,99999999' 
WAVCIS,ioos:station:WAVCIS:CSI03:3,2016-05-07T09:00:00Z,29.4412,-92.0613,10.0,4.305,144.0,,'11111222,11111222,99999999' 
WAVCIS,ioos:station:WAVCIS:CSI03:3,2016-05-07T10:00:00Z,29.4412,-92.0613,10.0,4.812,152.0,,'11111222,11111222,99999999' 
WAVCIS,ioos:station:WAVCIS:CSI03:3,2016-05-07T11:00:00Z,29.4412,-92.0613,10.0,4.537,166.0,,'11111222,11111222,99999999' 
WAVCIS,ioos:station:WAVCIS:CSI03:3,2016-05-07T12:00:00Z,29.4412,-92.0613,10.0,4.569,171.0,,'11111222,11111222,99999999' 
WAVCIS,ioos:station:WAVCIS:CSI03:3,2016-05-07T13:00:00Z,29.4412,-92.0613,10.0,4.131,175.0,,'11111222,11111222,99999999' 
WAVCIS,ioos:station:WAVCIS:CSI03:3,2016-05-07T14:00:00Z,29.4412,-92.0613,10.0,4.196,178.0,,'11111222,11111222,99999999' 
WAVCIS,ioos:station:WAVCIS:CSI03:3,2016-05-07T15:00:00Z,29.4412,-92.0613,10.0,4.036,190.0,,'11111222,11111222,99999999' 
WAVCIS,ioos:station:WAVCIS:CSI03:3,2016-05-07T16:00:00Z,29.4412,-92.0613,10.0,3.342,200.0,,'11111222,11111222,99999999' 
WAVCIS,ioos:station:WAVCIS:CSI03:3,2016-05-07T17:00:00Z,29.4412,-92.0613,10.0,3.272,238.0,,'11111222,11111222,99999999' 
WAVCIS,ioos:station:WAVCIS:CSI03:3,2016-05-07T18:00:00Z,29.4412,-92.0613,10.0,2.674,252.0,,'11111222,11111222,99999999' 
WAVCIS,ioos:station:WAVCIS:CSI03:3,2016-05-07T19:00:00Z,29.4412,-92.0613,10.0,3.162,249.0,,'11111222,11111222,99999999' 
WAVCIS,ioos:station:WAVCIS:CSI03:3,2016-05-07T20:00:00Z,29.4412,-92.0613,10.0,2.796,258.0,,'11111222,11111222,99999999' 
WAVCIS,ioos:station:WAVCIS:CSI03:3,2016-05-07T21:00:00Z,29.4412,-92.0613,10.0,2.373,265.0,,'11111222,11111222,99999999' 
WAVCIS,ioos:station:WAVCIS:CSI03:3,2016-05-07T22:00:00Z,29.4412,-92.0613,10.0,1.841,263.0,,'11111222,11111222,99999999' 
WAVCIS,ioos:station:WAVCIS:CSI03:3,2016-05-07T23:00:00Z,29.4412,-92.0613,10.0,1.85,253.0,,'11111222,11111222,99999999' 
WAVCIS,ioos:station:WAVCIS:CSI03:3,2016-05-08T00:00:00Z,29.4412,-92.0613,10.0,2.272,260.0,,'11111222,11111222,99999999' 
WAVCIS,ioos:station:WAVCIS:CSI03:3,2016-05-08T01:00:00Z,29.4412,-92.0613,10.0,2.882,255.0,,'11111222,11111222,99999999' 
WAVCIS,ioos:station:WAVCIS:CSI03:3,2016-05-08T02:00:00Z,29.4412,-92.0613,10.0,2.806,262.0,,'11111222,11111222,99999999' 
WAVCIS,ioos:station:WAVCIS:CSI03:3,2016-05-08T03:00:00Z,29.4412,-92.0613,10.0,2.349,262.0,,'11111222,11111222,99999999' 
WAVCIS,ioos:station:WAVCIS:CSI03:3,2016-05-08T04:00:00Z,29.4412,-92.0613,10.0,3.234,262.0,,'11111222,11111222,99999999' 
WAVCIS,ioos:station:WAVCIS:CSI03:3,2016-05-08T05:00:00Z,29.4412,-92.0613,10.0,1.717,276.0,,'11111222,11111222,99999999' 
WAVCIS,ioos:station:WAVCIS:CSI03:3,2016-05-08T06:00:00Z,29.4412,-92.0613,10.0,2.047,271.0,,'11111222,11111222,99999999' 
WAVCIS,ioos:station:WAVCIS:CSI03:3,2016-05-08T07:00:00Z,29.4412,-92.0613,10.0,2.435,272.0,,'11111222,11111222,99999999' 
WAVCIS,ioos:station:WAVCIS:CSI03:3,2016-05-08T08:00:00Z,29.4412,-92.0613,10.0,2.495,277.0,,'11111222,11111222,99999999' 
WAVCIS,ioos:station:WAVCIS:CSI03:3,2016-05-08T09:00:00Z,29.4412,-92.0613,10.0,1.45,273.0,,'11111222,11111222,99999999' 
WAVCIS,ioos:station:WAVCIS:CSI03:3,2016-05-08T10:00:00Z,29.4412,-92.0613,10.0,1.379,292.0,,'11111222,11111222,99999999' 
WAVCIS,ioos:station:WAVCIS:CSI03:3,2016-05-08T11:00:00Z,29.4412,-92.0613,10.0,2.696,277.0,,'11111222,11111222,99999999' 
WAVCIS,ioos:station:WAVCIS:CSI03:3,2016-05-08T12:00:00Z,29.4412,-92.0613,10.0,2.464,273.0,,'11111222,11111222,99999999' 
WAVCIS,ioos:station:WAVCIS:CSI03:3,2016-05-08T13:00:00Z,29.4412,-92.0613,10.0,3.813,268.0,,'11111222,11111222,99999999' 
WAVCIS,ioos:station:WAVCIS:CSI03:3,2016-05-08T14:00:00Z,29.4412,-92.0613,10.0,4.369,271.0,,'11111222,11111222,99999999' 
WAVCIS,ioos:station:WAVCIS:CSI03:3,2016-05-08T15:00:00Z,29.4412,-92.0613,10.0,4.01,266.0,,'11111222,11111222,99999999' 
WAVCIS,ioos:station:WAVCIS:CSI03:3,2016-05-08T16:00:00Z,29.4412,-92.0613,10.0,5.985,258.0,,'11111222,11111222,99999999' 
WAVCIS,ioos:station:WAVCIS:CSI03:3,2016-05-08T17:00:00Z,29.4412,-92.0613,10.0,5.823,258.0,,'11111222,11111222,99999999' 
WAVCIS,ioos:station:WAVCIS:CSI03:3,2016-05-08T18:00:00Z,29.4412,-92.0613,10.0,5.897,260.0,,'11111222,11111222,99999999' 
WAVCIS,ioos:station:WAVCIS:CSI03:3,2016-05-08T19:00:00Z,29.4412,-92.0613,10.0,7.24,257.0,,'11111222,11111222,99999999' 
WAVCIS,ioos:station:WAVCIS:CSI03:3,2016-05-08T20:00:00Z,29.4412,-92.0613,10.0,7.31,253.0,,'11111222,11111222,99999999' 
WAVCIS,ioos:station:WAVCIS:CSI03:3,2016-05-08T21:00:00Z,29.4412,-92.0613,10.0,6.044,258.0,,'11111222,11111222,99999999' 
WAVCIS,ioos:station:WAVCIS:CSI03:3,2016-05-08T22:00:00Z,29.4412,-92.0613,10.0,5.76,256.0,,'11111222,11111222,99999999' 
WAVCIS,ioos:station:WAVCIS:CSI03:3,2016-05-08T23:00:00Z,29.4412,-92.0613,10.0,6.145,256.0,,'11111222,11111222,99999999' 
WAVCIS,ioos:station:WAVCIS:CSI03:3,2016-05-09T00:00:00Z,29.4412,-92.0613,10.0,7.66,255.0,,'11111222,11111222,99999999' 
WAVCIS,ioos:station:WAVCIS:CSI03:3,2016-05-09T01:00:00Z,29.4412,-92.0613,10.0,6.964,262.0,,'11111222,11111222,99999999' 
WAVCIS,ioos:station:WAVCIS:CSI03:3,2016-05-09T02:00:00Z,29.4412,-92.0613,10.0,10.05,250.0,,'11111222,11111222,99999999' 
WAVCIS,ioos:station:WAVCIS:CSI03:3,2016-05-09T03:00:00Z,29.4412,-92.0613,10.0,11.8,255.0,,'11111222,11111222,99999999' 
WAVCIS,ioos:station:WAVCIS:CSI03:3,2016-05-09T04:00:00Z,29.4412,-92.0613,10.0,9.66,252.0,,'11111222,11111222,99999999' 
WAVCIS,ioos:station:WAVCIS:CSI03:3,2016-05-09T05:00:00Z,29.4412,-92.0613,10.0,8.34,260.0,,'11111222,11111222,99999999' 
WAVCIS,ioos:station:WAVCIS:CSI03:3,2016-05-09T06:00:00Z,29.4412,-92.0613,10.0,5.834,264.0,,'11111222,11111222,99999999' 
WAVCIS,ioos:station:WAVCIS:CSI03:3,2016-05-09T07:00:00Z,29.4412,-92.0613,10.0,3.987,273.0,,'11111222,11111222,99999999' 
WAVCIS,ioos:station:WAVCIS:CSI03:3,2016-05-09T08:00:00Z,29.4412,-92.0613,10.0,6.178,314.0,,'11111222,11111222,99999999' 
WAVCIS,ioos:station:WAVCIS:CSI03:3,2016-05-09T09:00:00Z,29.4412,-92.0613,10.0,2.784,298.0,,'11111222,11111222,99999999' 
WAVCIS,ioos:station:WAVCIS:CSI03:3,2016-05-09T10:00:00Z,29.4412,-92.0613,10.0,1.059,326.0,,'11111222,11111222,99999999' 
WAVCIS,ioos:station:WAVCIS:CSI03:3,2016-05-09T11:00:00Z,29.4412,-92.0613,10.0,1.895,306.0,,'11111222,11111222,99999999' 
WAVCIS,ioos:station:WAVCIS:CSI03:3,2016-05-09T12:00:00Z,29.4412,-92.0613,10.0,3.544,281.0,,'11111222,11111222,99999999' 
WAVCIS,ioos:station:WAVCIS:CSI03:3,2016-05-09T13:00:00Z,29.4412,-92.0613,10.0,6.211,259.0,,'11111222,11111222,99999999' 
WAVCIS,ioos:station:WAVCIS:CSI03:3,2016-05-09T14:00:00Z,29.4412,-92.0613,10.0,6.194,262.0,,'11111222,11111222,99999999' 
WAVCIS,ioos:station:WAVCIS:CSI03:3,2016-05-09T15:00:00Z,29.4412,-92.0613,10.0,7.79,256.0,,'11111222,11111222,99999999' 
WAVCIS,ioos:station:WAVCIS:CSI03:3,2016-05-09T16:00:00Z,29.4412,-92.0613,10.0,6.403,266.0,,'11111222,11111222,99999999' 
WAVCIS,ioos:station:WAVCIS:CSI03:3,2016-05-09T17:00:00Z,29.4412,-92.0613,10.0,3.202,283.0,,'11111222,11111222,99999999' 
WAVCIS,ioos:station:WAVCIS:CSI03:3,2016-05-09T18:00:00Z,29.4412,-92.0613,10.0,8.59,264.0,,'11111222,11111222,99999999' 
WAVCIS,ioos:station:WAVCIS:CSI03:3,2016-05-09T19:00:00Z,29.4412,-92.0613,10.0,14.57,258.0,,'11111222,11111222,99999999' 
WAVCIS,ioos:station:WAVCIS:CSI03:3,2016-05-09T20:00:00Z,29.4412,-92.0613,10.0,11.56,264.0,,'11111222,11111222,99999999' 
WAVCIS,ioos:station:WAVCIS:CSI03:3,2016-05-09T21:00:00Z,29.4412,-92.0613,10.0,10.03,263.0,,'11111222,11111222,99999999' 
WAVCIS,ioos:station:WAVCIS:CSI03:3,2016-05-09T22:00:00Z,29.4412,-92.0613,10.0,4.725,266.0,,'11111222,11111222,99999999' 
WAVCIS,ioos:station:WAVCIS:CSI03:3,2016-05-09T23:00:00Z,29.4412,-92.0613,10.0,6.951,260.0,,'11111222,11111222,99999999' 
WAVCIS,ioos:station:WAVCIS:CSI03:3,2016-05-10T00:00:00Z,29.4412,-92.0613,10.0,5.244,263.0,,'11111222,11111222,99999999' 
WAVCIS,ioos:station:WAVCIS:CSI03:3,2016-05-10T01:00:00Z,29.4412,-92.0613,10.0,5.064,264.0,,'11111222,11111222,99999999' 
WAVCIS,ioos:station:WAVCIS:CSI03:3,2016-05-10T02:00:00Z,29.4412,-92.0613,10.0,5.776,256.0,,'11111222,11111222,99999999' 
WAVCIS,ioos:station:WAVCIS:CSI03:3,2016-05-10T03:00:00Z,29.4412,-92.0613,10.0,5.844,265.0,,'11111222,11111222,99999999' 
WAVCIS,ioos:station:WAVCIS:CSI03:3,2016-05-10T04:00:00Z,29.4412,-92.0613,10.0,5.934,265.0,,'11111222,11111222,99999999' 
WAVCIS,ioos:station:WAVCIS:CSI03:3,2016-05-10T05:00:00Z,29.4412,-92.0613,10.0,4.061,277.0,,'11111222,11111222,99999999' 
WAVCIS,ioos:station:WAVCIS:CSI03:3,2016-05-10T06:00:00Z,29.4412,-92.0613,10.0,3.338,273.0,,'11111222,11111222,99999999' 
WAVCIS,ioos:station:WAVCIS:CSI03:3,2016-05-10T07:00:00Z,29.4412,-92.0613,10.0,2.225,285.0,,'11111222,11111222,99999999' 
WAVCIS,ioos:station:WAVCIS:CSI03:3,2016-05-10T08:00:00Z,29.4412,-92.0613,10.0,4.138,264.0,,'11111222,11111222,99999999' 
WAVCIS,ioos:station:WAVCIS:CSI03:3,2016-05-10T09:00:00Z,29.4412,-92.0613,10.0,4.438,261.0,,'11111222,11111222,99999999' 
WAVCIS,ioos:station:WAVCIS:CSI03:3,2016-05-10T10:00:00Z,29.4412,-92.0613,10.0,4.599,232.0,,'11111222,11111222,99999999' 
WAVCIS,ioos:station:WAVCIS:CSI03:3,2016-05-10T11:00:00Z,29.4412,-92.0613,10.0,6.784,231.0,,'11111222,11111222,99999999' 
WAVCIS,ioos:station:WAVCIS:CSI03:3,2016-05-10T12:00:00Z,29.4412,-92.0613,10.0,6.06,230.0,,'11111222,11111222,99999999' 
WAVCIS,ioos:station:WAVCIS:CSI03:3,2016-05-10T13:00:00Z,29.4412,-92.0613,10.0,7.08,227.0,,'11111222,11111222,99999999' 
WAVCIS,ioos:station:WAVCIS:CSI03:3,2016-05-10T14:00:00Z,29.4412,-92.0613,10.0,7.86,253.0,,'11111222,11111222,99999999' 
WAVCIS,ioos:station:WAVCIS:CSI03:3,2016-05-10T15:00:00Z,29.4412,-92.0613,10.0,9.33,249.0,,'11111222,11111222,99999999' 
WAVCIS,ioos:station:WAVCIS:CSI03:3,2016-05-10T16:00:00Z,29.4412,-92.0613,10.0,7.31,260.0,,'11111222,11111222,99999999' 
WAVCIS,ioos:station:WAVCIS:CSI03:3,2016-05-10T17:00:00Z,29.4412,-92.0613,10.0,6.591,263.0,,'11111222,11111222,99999999' 
WAVCIS,ioos:station:WAVCIS:CSI03:3,2016-05-10T18:00:00Z,29.4412,-92.0613,10.0,5.903,269.0,,'11111222,11111222,99999999' 
WAVCIS,ioos:station:WAVCIS:CSI03:3,2016-05-10T19:00:00Z,29.4412,-92.0613,10.0,5.904,262.0,,'11111222,11111222,99999999' 